Погода в Икалуите

Канада     63°45′05″N   68°31′23″W
темп.,
°C
ветер,
м/с
пор.,
м/с
влажн.,
%
обл.,
%
осадки,
мм/ч
давл.,
гПа
погр.,
м
13 апреля, вт
вт1323:000сз6998100 1.0 1028291
02:00−4сз7119080 1.2 1029186
05:00−10сз6109169 0.0 1030133
08:00−11сз6990100 0.0 1031171
11:00−7сз6782100 0.0 1028211
14:00−5сз6678100 0.0 1026261
17:00−7сз61086100 0.0 1025312
20:00−10сз813875 0.0 1026233
14 апреля, ср
ср1423:00−15сз9148718 0.0 1029240
02:00−19сз813895 0.0 1031239
05:00−23сз6119225 0.0 1034189
08:00−23сз612889 0.0 1036343
11:00−21сз812803 0.0 1036388
14:00−19сз811760 0.0 1036436
17:00−18сз610802 0.0 1036422
20:00−24сз44904 0.0 103635
15 апреля, чт
чт1523:00−26ссз46925 0.0 103657
02:00−27ссз469423 0.0 103662
05:00−27ссз469515 0.0 103565
08:00−24ссз479313 0.0 1035165
11:00−20сз578714 0.0 1034292
14:00
17:00−17ссз47845 0.0 1032249
20:00−23с33939 0.0 103113
16 апреля, пт
пт1623:00−26с339654 0.0 103013
02:00−25ссз339654 0.0 102830
05:00−25ссз349644 0.0 102738
08:00−22ссз359337 0.0 1026144
11:00−18ссз348729 0.0 1024227
14:00−16ссз128113 0.0 1024208
17:00−14юз22839 0.0 102255
20:00−20сз11964 0.0 10229
17 апреля, сб
сб1723:00−23ссв229536 0.0 10229
02:00−23с229745 0.0 10219
05:00−24с229747 0.0 10219
08:00−20ссз229537 0.0 102054
11:00−15сз128217 0.0 1019177
14:00−13сз128014 0.0 1018197
17:00−13сз11868 0.0 101825
20:00−19ссв11945 0.0 10189